Weather History for Lancaster, PA

Change the Weather History Date:

Monday, July 21, 2014

  Actual Average Record
Temperature  
Mean Temperature 72 °F -  
Max Temperature 80 °F 88 °F 100 °F (2011)
Min Temperature 64 °F 65 °F 54 °F (2001)
Cooling Degree Days 6    
Growing Degree Days 22 (Base 50)    
Moisture  
Dew Point 64 °F    
Average Humidity 80    
Maximum Humidity 97    
Minimum Humidity 56    
Precipitation  
Precipitation 0.00 in - - ()
Sea Level Pressure  
Sea Level Pressure 30.17 in    
Wind  
Wind Speed 2 mph (ESE)    
Max Wind Speed 6 mph    
Max Gust Speed -    
Visibility 7 miles    
Events      
Averages and records for this station are not official NWS values.
T = Trace of Precipitation, MM = Missing Value Source: NWS Daily Summary

Daily Weather History Graph

Daily Weather History Graph

Search for Another Location

Airport:

Trip Planner

Search our weather history database for the weather conditions in past years. The results will help you decide how hot, cold, wet, or windy it might be!

Date:

Astronomy

Jul. 21, 2014 Rise Set
Actual Time 5:53 AM EDT 8:29 PM EDT
Civil Twilight 5:22 AM EDT 9:00 PM EDT
Nautical Twilight 4:42 AM EDT 9:39 PM EDT
Astronomical Twilight 3:58 AM EDT 10:23 PM EDT
Moon 1:42 AM EDT (7/21) 4:09 PM EDT (7/21)
Length of Visible Light 15h 38m
Length of Day
14h 35m
Waning Crescent, 24% of the Moon is Illuminated
Jul 21
Waning Crescent
Jul 26
New
Aug 3
First Quarter
Aug 10
Full
Aug 17
Last Quarter

Hourly Weather History & Observations

Time (EDT) Temp. Dew Point Humidity Pressure Visibility Wind Dir Wind Speed Gust Speed Precip Events Conditions
12:53 AM 66.0 °F 64.0 °F 93% 30.14 in 6.0 mi Calm Calm - N/A   Clear
1:53 AM 66.0 °F 64.0 °F 93% 30.14 in 5.0 mi East 3.5 mph - N/A   Partly Cloudy
2:53 AM 64.9 °F 63.0 °F 93% 30.14 in 4.0 mi East 3.5 mph - N/A   Clear
3:53 AM 64.0 °F 63.0 °F 96% 30.13 in 5.0 mi East 4.6 mph - N/A   Mostly Cloudy
4:38 AM 64.9 °F 63.0 °F 93% 30.15 in 5.0 mi Calm Calm - N/A   Overcast
4:53 AM 64.0 °F 63.0 °F 96% 30.16 in 5.0 mi Calm Calm - N/A   Overcast
5:22 AM 66.0 °F 64.0 °F 93% 30.17 in 5.0 mi Calm Calm - N/A   Overcast
5:53 AM 66.0 °F 64.0 °F 93% 30.17 in 3.0 mi East 3.5 mph - N/A   Overcast
6:03 AM 66.0 °F 64.9 °F 96% 30.18 in 2.5 mi Calm Calm - N/A   Overcast
6:53 AM 66.9 °F 66.0 °F 97% 30.19 in 2.5 mi Calm Calm - N/A   Overcast
7:00 AM 66.9 °F 66.0 °F 97% 30.19 in 3.0 mi SE 3.5 mph - N/A   Overcast
7:53 AM 68.0 °F 66.0 °F 93% 30.20 in 4.0 mi ESE 3.5 mph - N/A   Overcast
8:02 AM 68.0 °F 66.0 °F 93% 30.20 in 5.0 mi ESE 3.5 mph - N/A   Overcast
8:53 AM 70.0 °F 66.0 °F 87% 30.21 in 7.0 mi East 3.5 mph - N/A   Overcast
9:53 AM 72.0 °F 64.9 °F 78% 30.21 in 8.0 mi East 3.5 mph - N/A   Overcast
10:53 AM 75.0 °F 64.9 °F 71% 30.21 in 10.0 mi Calm Calm - N/A   Mostly Cloudy
11:53 AM 75.0 °F 63.0 °F 66% 30.20 in 10.0 mi East 3.5 mph - N/A   Mostly Cloudy
12:53 PM 77.0 °F 62.1 °F 60% 30.20 in 10.0 mi East 3.5 mph - N/A   Overcast
1:53 PM 77.0 °F 62.1 °F 60% 30.19 in 10.0 mi East 3.5 mph - N/A   Overcast
2:53 PM 78.1 °F 62.1 °F 58% 30.17 in 10.0 mi Calm Calm - N/A   Overcast
3:53 PM 79.0 °F 62.1 °F 56% 30.17 in 10.0 mi Calm Calm - N/A   Overcast
4:53 PM 78.1 °F 64.0 °F 62% 30.17 in 10.0 mi Calm Calm - N/A   Overcast
5:53 PM 79.0 °F 64.0 °F 60% 30.15 in 10.0 mi Calm Calm - N/A   Overcast
6:53 PM 78.1 °F 63.0 °F 60% 30.15 in 10.0 mi SSE 4.6 mph - N/A   Scattered Clouds
7:53 PM 77.0 °F 64.0 °F 64% 30.16 in 10.0 mi SSW 5.8 mph - N/A   Overcast
8:53 PM 75.9 °F 63.0 °F 64% 30.16 in 10.0 mi Calm Calm - N/A   Mostly Cloudy
9:53 PM 72.0 °F 64.0 °F 76% 30.17 in 10.0 mi Calm Calm - N/A   Clear
10:53 PM 71.1 °F 64.0 °F 78% 30.17 in 10.0 mi South 3.5 mph - N/A   Clear
11:53 PM 70.0 °F 64.0 °F 81% 30.17 in 10.0 mi Calm Calm - N/A   Clear